Wind_Speed
52 51 50 49 48 47 46 45 46 47 46 45 45 45 43 42 41 40 39 38 36 36 35 33 30 30 31 32 32 30 29 27 26 25 24 22 21 19 19 18 19 19 19
54 54 54 54 53 51 50 49 48 49 50 51 50 49 48 46 44 42 41 40 39 39 38 37 35 33 33 34 34 34 33 32 30 30 29 28 27 26 24 23 22 21 22
57 56 56 56 55 54 54 53 52 51 51 51 52 52 52 50 49 47 46 44 43 42 42 41 39 38 36 36 36 37 37 36 35 34 33 33 32 31 30 28 27 25 23
62 62 61 59 59 58 56 56 56 55 54 54 54 53 53 53 52 51 50 49 47 47 46 46 45 44 43 41 41 40 39 39 39 38 38 37 36 35 34 33 31 30 28
63 64 65 64 63 62 61 59 58 57 57 57 57 57 57 55 55 54 53 51 50 49 48 48 48 47 46 45 44 44 44 43 42 41 40 40 39 38 36 35 34 33 32
66 66 66 66 66 65 64 63 62 61 60 60 60 60 60 59 58 57 56 54 53 51 50 49 48 47 45 44 43 42 43 42 42 41 41 40 38 37 36 35 34 33 33
74 74 73 71 71 70 69 67 67 66 64 63 64 64 63 63 62 61 60 59 57 56 54 53 51 49 48 47 46 45 44 42 42 42 42 42 41 40 39 38 37 36 35
80 80 79 77 76 76 75 73 71 70 68 66 66 67 68 67 65 64 64 63 62 61 59 58 56 54 53 52 51 50 48 47 45 45 45 45 44 43 43 42 41 39 38
84 84 84 83 82 81 80 78 76 75 73 70 67 66 67 67 68 69 68 67 67 65 64 62 60 59 58 57 56 54 53 52 50 49 48 48 47 46 45 44 43 42 41
88 88 89 89 88 86 85 84 82 80 78 75 72 69 67 67 67 67 69 70 70 70 69 67 66 63 62 61 60 59 58 57 55 54 53 51 50 48 47 45 44 44 43
77 80 84 87 88 88 88 87 87 84 83 81 79 76 73 71 70 69 68 68 70 71 71 71 70 69 67 65 64 63 62 61 59 57 57 55 53 52 50 48 47 46 46
56 61 67 72 76 79 82 84 86 86 85 84 83 81 78 76 75 74 72 69 68 68 69 70 71 71 71 70 68 67 65 64 63 61 61 59 57 56 54 52 51 50 48
35 39 44 48 53 59 65 71 76 80 82 84 84 83 80 78 77 77 77 75 72 70 69 69 68 70 70 70 69 68 67 66 64 63 62 60 59 57 56 55 54 53 52
26 30 33 36 39 43 49 56 63 69 74 78 82 83 82 79 77 77 79 79 78 76 73 70 68 68 69 70 69 66 64 64 63 62 62 62 61 60 58 57 55 54 52
22 24 27 29 32 35 40 45 51 58 65 71 74 75 76 76 73 75 77 79 80 79 77 74 72 71 70 70 69 67 65 65 65 64 63 62 61 61 60 59 59 57 55
25 27 28 29 31 33 35 38 43 50 57 63 67 68 68 69 69 71 74 75 77 78 78 76 74 72 72 72 72 71 71 70 69 67 66 65 64 65 64 64 63 62 61
29 30 31 32 33 34 36 38 39 43 50 56 58 59 59 58 61 65 67 68 70 73 76 77 76 75 74 74 74 74 73 72 71 70 69 68 67 68 68 69 69 68 68
33 34 35 35 35 35 36 37 39 39 40 44 46 49 51 51 53 58 63 64 62 63 67 71 74 75 75 74 74 74 74 73 72 72 71 71 70 69 70 70 71 70 70
37 36 37 37 36 36 35 34 34 31 29 32 38 46 51 53 54 53 54 56 55 56 60 63 66 68 69 70 70 71 72 73 72 71 70 69 69 69 69 68 69 70 70
40 39 38 38 37 35 32 30 27 22 24 32 39 42 48 52 55 55 53 51 49 49 51 55 57 60 61 62 63 65 67 68 68 67 66 66 66 67 67 69 70 71 71
42 40 38 37 36 34 30 26 22 21 25 33 38 39 41 45 48 50 50 50 49 49 50 53 56 57 57 58 59 60 61 61 62 63 63 64 64 65 67 68 69 68 67
44 42 40 38 36 34 30 25 24 27 29 34 38 41 42 41 42 44 46 48 48 48 50 52 55 58 59 59 59 59 57 57 58 60 62 64 65 64 64 64 63 63 64
44 42 40 38 36 34 31 29 27 33 36 36 39 41 42 43 43 44 46 47 48 47 48 50 53 57 59 61 60 60 59 57 57 57 59 59 61 62 61 60 60 61 62
42 41 40 39 37 36 34 32 32 33 38 40 41 41 42 41 41 43 45 47 48 49 49 49 50 53 56 58 58 57 54 53 53 53 53 53 54 54 55 56 56 56 57
37 39 40 40 39 38 38 36 36 36 37 40 43 43 43 41 41 42 45 46 48 49 49 49 50 51 52 52 51 51 51 50 49 50 51 51 52 53 53 54 54 54 55
29 33 38 41 41 41 41 41 39 39 38 38 41 44 46 44 43 44 45 47 49 50 50 50 50 49 49 49 49 50 49 48 47 47 48 50 51 52 53 54 55 56 55
Wind_Direction
266 265 264 263 261 258 256 254 253 251 248 246 244 243 242 241 240 238 237 234 233 236 238 239 237 235 231 230 231 233 236 239 240 243 246 248 249 250 250 249 247 246 247
266 264 263 262 261 259 257 254 252 252 252 249 247 244 243 241 239 237 236 234 232 233 236 238 238 237 235 233 233 235 239 242 244 247 249 251 254 256 258 258 257 255 254
263 262 261 259 258 257 257 256 254 252 250 249 248 247 245 243 241 239 237 235 233 232 234 236 237 238 238 238 237 238 241 244 246 250 252 255 257 258 259 260 260 259 257
262 261 259 258 257 255 254 254 254 253 251 249 248 247 247 245 244 242 240 238 236 234 235 237 239 240 241 242 242 242 243 245 247 250 254 256 258 259 259 259 259 259 258
261 261 261 260 258 257 254 252 251 251 251 250 248 247 247 247 246 244 242 240 238 237 237 238 240 241 242 243 244 246 247 249 250 252 253 254 255 256 256 257 258 258 258
261 260 259 259 258 257 256 254 251 250 250 249 248 247 246 246 246 245 244 241 239 238 238 238 239 241 241 242 243 244 246 247 248 249 251 251 251 251 252 253 255 257 258
263 262 261 259 258 257 256 255 253 252 251 251 249 247 245 245 245 245 244 242 240 239 239 239 239 240 241 242 243 244 245 246 247 248 250 250 250 250 250 252 255 257 257
263 263 261 259 256 256 256 256 255 253 251 251 250 249 247 245 244 244 244 244 242 240 239 239 239 239 241 243 244 246 247 248 248 249 251 252 251 250 250 252 255 256 255
259 260 260 258 257 256 256 257 258 257 253 250 249 249 247 246 245 244 243 243 243 242 241 240 240 240 240 242 244 245 247 249 250 250 251 252 252 252 251 252 255 255 254
259 258 258 258 259 258 257 256 256 256 255 254 251 249 248 246 245 244 244 243 243 243 243 243 242 242 241 242 243 244 246 248 249 251 252 253 252 252 252 253 253 253 252
263 262 261 260 260 260 259 257 255 254 254 253 253 251 250 248 246 244 243 244 244 243 244 244 244 244 243 242 242 243 245 247 248 250 251 253 253 252 251 252 252 251 251
262 261 261 260 260 260 260 258 256 253 251 250 250 251 250 250 248 246 244 243 244 244 243 244 244 244 244 243 243 243 244 246 247 248 250 251 251 252 252 251 250 250 250
258 258 259 259 259 258 257 256 255 253 251 249 248 248 248 249 249 248 247 245 244 243 243 243 244 244 244 243 242 242 243 244 245 246 246 247 249 251 251 251 250 249 248
262 262 262 263 264 263 261 258 254 251 249 246 245 246 246 246 246 247 247 247 246 244 243 243 243 243 242 241 240 239 239 240 240 240 241 243 245 248 250 250 250 249 246
276 272 269 268 269 271 270 267 262 256 250 246 243 241 242 242 241 242 244 245 246 245 244 243 242 241 240 239 238 236 234 235 236 237 238 240 242 245 246 246 247 247 247
283 281 280 279 278 280 281 278 272 261 254 248 243 238 236 237 237 238 239 241 243 244 243 242 240 240 239 238 237 236 235 235 235 236 237 238 239 241 242 243 245 246 248
281 281 282 281 282 284 285 284 285 272 257 248 240 233 230 231 233 235 236 238 239 241 242 241 240 239 238 238 237 237 236 236 236 236 237 239 240 241 242 244 246 247 249
282 281 281 281 282 284 286 286 286 280 261 245 232 222 219 223 228 231 233 234 235 236 237 238 238 237 237 236 236 236 236 236 236 237 239 240 242 243 244 246 248 249 250
284 281 279 280 281 283 285 286 285 277 252 229 213 215 217 223 225 226 227 229 231 232 233 234 234 235 235 235 235 235 236 236 237 238 239 240 242 244 245 246 247 249 250
283 281 278 278 279 280 282 284 281 263 232 211 208 214 219 226 230 230 232 234 235 235 235 234 234 234 234 234 234 235 236 236 237 237 239 240 241 243 244 245 247 249 250
280 278 276 275 275 276 275 276 264 242 226 219 218 218 218 223 227 230 233 235 236 237 237 237 235 234 235 235 236 235 235 235 236 237 238 240 242 244 245 246 248 249 250
274 273 271 270 269 268 266 263 250 230 226 227 229 229 225 222 223 224 226 228 230 233 236 236 235 234 233 234 235 236 236 236 238 238 239 241 244 246 248 249 249 249 250
267 266 265 264 261 260 257 253 245 231 228 230 233 235 236 235 235 232 230 230 231 233 236 238 238 237 236 235 235 236 238 240 241 242 243 244 244 245 246 246 246 247 247
264 260 257 257 255 252 249 245 242 236 233 233 235 237 238 237 236 237 236 235 236 238 239 240 241 240 238 237 238 239 240 240 240 239 239 241 241 241 242 243 244 245 246
273 261 254 250 249 247 244 241 238 236 237 237 237 237 238 236 234 236 237 237 237 239 240 241 242 240 235 232 233 234 236 237 237 236 235 237 240 243 245 247 247 246 247
290 273 259 250 246 244 242 239 236 234 236 239 239 238 236 235 233 233 234 235 235 235 236 237 238 237 232 227 226 229 233 235 236 237 237 238 241 245 247 248 248 249 247
Height
5745 5745 5745 5746 5746 5747 5749 5750 5753 5755 5757 5760 5762 5764 5767 5770 5773 5776 5780 5783 5786 5789 5791 5794 5798 5801 5804 5808 5811 5815 5818 5821 5823 5826 5829 5832 5834 5836 5839 5841 5843 5845 5847
5731 5732 5732 5733 5734 5735 5737 5739 5741 5743 5746 5749 5752 5754 5756 5759 5762 5766 5770 5773 5777 5780 5783 5786 5790 5793 5797 5800 5804 5808 5811 5814 5816 5819 5822 5825 5828 5830 5833 5835 5838 5840 5842
5715 5716 5718 5719 5719 5721 5724 5726 5728 5730 5733 5736 5739 5742 5745 5748 5751 5755 5759 5763 5767 5770 5773 5777 5780 5784 5788 5792 5795 5799 5803 5806 5809 5812 5815 5818 5820 5823 5826 5829 5831 5834 5836
5698 5699 5700 5703 5705 5706 5708 5711 5714 5717 5720 5722 5725 5729 5732 5736 5740 5743 5747 5752 5756 5760 5763 5767 5770 5774 5779 5782 5786 5790 5794 5797 5800 5804 5806 5809 5812 5815 5818 5821 5824 5826 5829
5678 5680 5682 5684 5687 5690 5693 5695 5698 5701 5705 5708 5711 5714 5718 5722 5727 5731 5735 5739 5743 5748 5752 5756 5760 5764 5768 5772 5777 5780 5784 5787 5791 5794 5797 5800 5803 5806 5809 5812 5815 5818 5821
5659 5660 5662 5665 5667 5671 5674 5677 5681 5684 5689 5692 5695 5699 5703 5707 5712 5717 5721 5726 5730 5734 5739 5743 5748 5752 5757 5762 5766 5770 5774 5778 5781 5784 5787 5790 5794 5797 5800 5803 5806 5809 5812
5638 5639 5642 5645 5647 5651 5655 5658 5661 5666 5671 5674 5678 5683 5686 5691 5696 5702 5706 5711 5716 5721 5725 5730 5735 5740 5745 5750 5754 5759 5763 5767 5771 5774 5777 5780 5784 5787 5790 5794 5797 5801 5804
5614 5616 5619 5623 5625 5629 5634 5637 5640 5645 5652 5656 5660 5663 5669 5675 5681 5685 5690 5696 5701 5706 5712 5717 5721 5727 5732 5737 5742 5747 5751 5756 5760 5764 5767 5770 5774 5778 5781 5784 5788 5791 5794
5590 5592 5596 5599 5603 5607 5612 5616 5619 5623 5630 5637 5641 5645 5649 5657 5662 5667 5673 5679 5685 5691 5697 5702 5707 5713 5718 5723 5729 5734 5739 5743 5748 5752 5756 5759 5763 5767 5770 5774 5778 5781 5785
5564 5567 5571 5576 5580 5585 5590 5595 5599 5603 5608 5615 5621 5626 5631 5637 5643 5649 5655 5661 5667 5673 5680 5686 5692 5698 5704 5709 5715 5720 5725 5730 5735 5740 5743 5746 5750 5754 5759 5763 5767 5771 5775
5540 5543 5548 5552 5556 5561 5565 5570 5575 5581 5586 5593 5599 5605 5611 5616 5622 5629 5636 5643 5649 5656 5662 5669 5676 5682 5688 5694 5700 5706 5711 5716 5722 5726 5730 5733 5736 5741 5746 5751 5756 5760 5764
5516 5520 5524 5529 5532 5536 5540 5544 5549 5555 5562 5569 5576 5582 5589 5596 5603 5609 5616 5624 5630 5637 5644 5651 5658 5665 5671 5678 5684 5690 5696 5701 5707 5713 5716 5719 5723 5728 5733 5738 5743 5748 5752
5499 5502 5505 5508 5510 5513 5515 5518 5523 5529 5536 5544 5551 5559 5566 5573 5581 5587 5595 5603 5611 5619 5626 5633 5641 5647 5654 5660 5667 5673 5679 5685 5692 5698 5702 5706 5710 5714 5719 5724 5729 5735 5740
5488 5490 5492 5493 5494 5495 5496 5497 5500 5505 5509 5517 5526 5534 5542 5551 5558 5566 5574 5581 5589 5598 5607 5615 5623 5630 5636 5643 5649 5655 5662 5668 5675 5681 5687 5691 5696 5701 5706 5710 5715 5721 5727
5478 5479 5480 5482 5482 5482 5481 5481 5481 5483 5486 5493 5501 5510 5519 5528 5537 5544 5552 5559 5568 5577 5587 5596 5604 5612 5619 5625 5631 5637 5644 5651 5658 5665 5671 5677 5682 5688 5693 5697 5702 5708 5713
5469 5469 5469 5469 5469 5468 5467 5465 5464 5464 5465 5470 5478 5488 5498 5508 5516 5524 5531 5538 5546 5555 5565 5574 5584 5593 5601 5608 5614 5620 5627 5635 5642 5649 5656 5662 5668 5673 5678 5683 5688 5693 5698
5460 5459 5458 5457 5456 5455 5453 5451 5448 5445 5446 5450 5458 5469 5481 5491 5499 5505 5512 5518 5526 5534 5544 5553 5563 5573 5581 5589 5596 5603 5611 5619 5626 5633 5640 5646 5652 5657 5662 5667 5672 5677 5682
5449 5447 5445 5444 5443 5442 5440 5437 5433 5429 5429 5433 5442 5454 5466 5476 5482 5488 5494 5500 5508 5515 5525 5533 5542 5552 5561 5569 5577 5585 5594 5602 5609 5616 5623 5629 5635 5640 5645 5651 5656 5661 5666
5436 5434 5432 5431 5430 5429 5427 5424 5420 5416 5416 5421 5431 5442 5451 5459 5465 5470 5477 5484 5493 5501 5509 5517 5524 5532 5541 5550 5559 5567 5576 5584 5591 5599 5605 5612 5617 5623 5629 5634 5639 5644 5649
5423 5421 5419 5417 5416 5416 5415 5413 5410 5407 5407 5413 5421 5429 5437 5444 5450 5457 5464 5472 5481 5490 5498 5504 5511 5518 5526 5534 5542 5550 5558 5567 5574 5581 5589 5595 5600 5606 5612 5618 5623 5627 5632
5408 5407 5405 5404 5404 5403 5403 5403 5402 5401 5402 5405 5411 5417 5424 5431 5437 5444 5451 5459 5468 5476 5484 5492 5498 5505 5512 5520 5528 5535 5543 5550 5557 5564 5572 5580 5585 5591 5594 5600 5605 5610 5615
5391 5391 5390 5390 5390 5390 5392 5393 5393 5394 5396 5398 5402 5406 5412 5418 5424 5431 5439 5447 5455 5463 5471 5478 5485 5492 5499 5506 5513 5520 5528 5536 5543 5552 5557 5562 5568 5573 5579 5584 5589 5594 5599
5372 5373 5374 5375 5376 5377 5380 5382 5383 5385 5388 5390 5393 5397 5402 5408 5413 5420 5429 5437 5444 5451 5459 5466 5472 5477 5484 5493 5501 5508 5514 5521 5529 5535 5540 5546 5551 5557 5562 5568 5572 5577 5583
5353 5355 5358 5360 5361 5363 5366 5369 5372 5375 5378 5381 5384 5388 5392 5398 5403 5410 5418 5425 5432 5439 5447 5453 5459 5464 5469 5477 5485 5493 5500 5507 5513 5519 5525 5531 5536 5541 5546 5551 5556 5562 5567
5337 5338 5340 5343 5346 5348 5351 5355 5359 5363 5366 5370 5374 5378 5383 5388 5394 5400 5407 5413 5420 5426 5433 5440 5445 5450 5456 5464 5471 5479 5486 5492 5499 5505 5511 5517 5522 5526 5531 5535 5541 5548 5552
5323 5323 5324 5327 5330 5333 5336 5340 5344 5350 5354 5358 5362 5366 5371 5377 5382 5387 5394 5400 5407 5414 5421 5427 5433 5438 5444 5451 5458 5465 5472 5479 5486 5492 5497 5503 5508 5512 5516 5521 5527 5532 5537